Starlink 30225

operational
NORAD ID: 57449 Int'l Des: 2023-105 Owner: SPXS Country: US Constellation: starlink
LEOCIRCULAR

关于 Starlink 30225

正在加载描述...

实时位置

正在加载3D地球...

即将过境

高度历史

Altitude vs Time

uPlot chart will show altitude changes over time

两行轨道根数

1 57449U 23105V 26035.18193189 -.00000603 00000-0 -29529-4 0 9998
2 57449 43.0046 83.4183 0001614 268.3374 91.7284 15.02532483140582
Epoch: Feb 4, 2026 • Age: 11 hours

当前状态

高度 567.7 km
速度 7.58 km/s
星下点 -33.67°S, 53.15°W
发射日期 Jul 24, 2023
运行时间 2.5 years
类型 internet

技术详情

分类 Payload
质量 730.00 kg
干质量 700.00 kg
总质量 730.00 kg
长度 0.30 m
直径 4.10 m
跨度 29.00 m
形状 Box + pan
制造商 SPXS
平台类型 Starlink V2M
阶段状态 In Orbit
所有者/国家 SPXS/US

大型星座

Loading constellations...